TimeEST,TemperatureF,Dew PointF,Humidity,Sea Level PressureIn,VisibilityMPH,Wind Direction,Wind SpeedMPH,Gust SpeedMPH,PrecipitationIn,Events,Conditions,WindDirDegrees,DateUTC
12:26 AM,-21.5,-27.0,75,30.64,-9999.0,Calm,Calm,-,0.00,,Unknown,0,2013-02-08 05:26:00
1:25 AM,-21.6,-27.4,75,30.65,-9999.0,Calm,Calm,-,N/A,,Unknown,0,2013-02-08 06:25:00
2:25 AM,-21.3,-26.9,75,30.66,-9999.0,Calm,Calm,-,N/A,,Unknown,0,2013-02-08 07:25:00
3:25 AM,-18.0,-23.3,77,30.66,-9999.0,Calm,Calm,-,0.01,,Unknown,0,2013-02-08 08:25:00
4:25 AM,-15.7,-21.5,75,30.66,-9999.0,Calm,Calm,-,0.01,,Unknown,0,2013-02-08 09:25:00
5:25 AM,-14.4,-19.5,78,30.65,-9999.0,Variable,2.3,-,N/A,,Unknown,0,2013-02-08 10:25:00
6:25 AM,-13.4,-18.6,77,30.63,-9999.0,Calm,Calm,-,0.01,,Unknown,0,2013-02-08 11:25:00
7:25 AM,-10.3,-15.7,77,30.63,-9999.0,Calm,Calm,-,0.00,,Unknown,0,2013-02-08 12:25:00
8:32 AM,-6.3,-12.1,76,30.66,-9999.0,Variable,2.3,-,0.01,,Unknown,0,2013-02-08 13:32:00
9:26 AM,-2.6,-8.9,74,30.65,-9999.0,Variable,3.5,-,N/A,,Unknown,0,2013-02-08 14:26:00
10:25 AM,-0.0,-8.0,69,30.63,-9999.0,Variable,6.9,-,N/A,,Unknown,0,2013-02-08 15:25:00
11:25 AM,2.1,-6.0,69,30.62,-9999.0,Variable,6.9,-,N/A,,Unknown,0,2013-02-08 16:25:00
12:28 PM,3.7,-4.2,70,30.57,-9999.0,Variable,5.8,-,N/A,,Unknown,0,2013-02-08 17:28:00
1:25 PM,6.1,-1.8,70,30.55,-9999.0,Variable,5.8,-,N/A,,Unknown,0,2013-02-08 18:25:00
2:27 PM,7.0,-1.1,69,30.52,-9999.0,East,6.9,-,N/A,,Unknown,80,2013-02-08 19:27:00
3:25 PM,7.3,0.1,72,30.51,-9999.0,Variable,4.6,-,N/A,,Unknown,0,2013-02-08 20:25:00
4:25 PM,7.0,0.1,74,30.46,-9999.0,Variable,4.6,-,N/A,,Unknown,0,2013-02-08 21:25:00
5:25 PM,5.7,-1.1,73,30.46,-9999.0,Variable,6.9,-,N/A,,Unknown,0,2013-02-08 22:25:00
6:28 PM,5.2,-2.0,72,30.44,-9999.0,Variable,4.6,-,N/A,,Unknown,0,2013-02-08 23:28:00
7:25 PM,5.0,-2.9,70,30.43,-9999.0,Variable,5.8,-,N/A,,Unknown,0,2013-02-09 00:25:00
8:26 PM,4.8,-2.7,71,30.41,-9999.0,Variable,4.6,-,N/A,,Unknown,0,2013-02-09 01:26:00
9:25 PM,4.6,-4.0,67,30.39,-9999.0,Variable,4.6,-,N/A,,Unknown,0,2013-02-09 02:25:00
10:25 PM,4.3,-4.9,66,30.35,-9999.0,Variable,3.5,-,N/A,,Unknown,0,2013-02-09 03:25:00
11:25 PM,4.3,-6.0,63,30.31,-9999.0,Variable,4.6,-,N/A,,Unknown,0,2013-02-09 04:25:00